Regional Weather Roundup
Issued by NWS Wakefield, VA

Home | Current Version | Previous Version | Text Only | Print | Product List | Glossary On
Versions: 1 2 3 4 5 6 7 8 9 10 11 12 13 14 15 16 17 18 19 20 21 22 23 24 25 26 27 28 29 30 31 32 33 34 35 36 37 38 39 40 41 42 43 44 45 46 47 48 49 50
000
ASUS41 KAKQ 241814
RWRAKQ

REGIONAL WEATHER ROUNDUP
NATIONAL WEATHER SERVICE WAKEFIELD VA
200 PM EDT SUN MAY 24 2015

Note: "fair" indicates few or no clouds below 12,000 feet with no
significant weather and/or obstructions to visibility. * = Denotes
station may not report precipitation (e.g., rain,snow,etc.),
thunder or fog.

VAZ042-051-052>054-056-241900-
NORTHERN VIRGINIA

CITY           SKY/WX    TMP DP  RH WIND       PRES   REMARKS
WASH NATIONAL  PTSUNNY   79  59  50 S9        30.33F
DULLES         MOSUNNY   79  47  32 W8        30.32F
FORT BELVOIR   SUNNY     78  59  51 SE5       30.32F
QUANTICO       SUNNY     77  61  57 S9        30.33F
FREDERICKSBRG* SUNNY     82  56  40 S9        30.32F
STAFFORD*      SUNNY     80  51  37 CALM      30.37F
WARRENTON      SUNNY     80  56  42 CALM      30.32F
CULPEPER*      SUNNY     79  55  42 S6        30.32F
MANASSAS*      SUNNY    N/A N/A N/A VRB5      30.32F
LEESBURG*      SUNNY     79  52  38 SW7       30.33F
WINCHESTER     SUNNY     81  27  13 SE7       30.33F
FRONT ROYAL*   FAIR      77  52  41 NE5       30.31F
LURAY*         FAIR      81  54  39 CALM      30.33F
$$

VAZ048-049-060>072-079>083-241900-
CENTRAL AND SOUTH CENTRAL VIRGINIA

CITY           SKY/WX    TMP DP  RH WIND       PRES   REMARKS
RICHMOND       MOSUNNY   81  56  42 S7        30.35F
CHESTERFIELD*  NOT AVBL
PETERSBURG*    SUNNY     81  54  39 S7        30.37F
HANOVER        SUNNY     81  55  40 W8G16     30.35F
TAPPAHANNOCK*  SUNNY     82  49  31 S7        30.35F
QUINTON*       FAIR      78  56  47 SW6       30.36F
CHARLOTTSVILLE SUNNY     80  55  42 SE10      30.32F
GORDONSVILLE*  FAIR      80  54  41 SW8       30.32F
ORANGE*        SUNNY     81  55  41 CALM      30.34F
LOUISA*        SUNNY     82  55  39 W7        30.32F
BUMPASS*       FAIR      79  55  44 W8        30.33F
FARMVILLE*     MOSUNNY   81  54  39 SW6       30.34F
CREWE*         FAIR      79  54  41 S3        30.36F
FORT PICKETT*  FAIR      79  57  47 SW6       30.37F
CHASE CITY*    FAIR      81  58  45 SW3       30.37F
CLARKSVILLE*   FAIR      77  55  47 SW8       30.37F
SOUTH HILL*    MOSUNNY   79  57  47 CALM      30.43F
LAWRENCEVILLE* FAIR      79  57  47 W5        30.37F
EMPORIA*       MOSUNNY   79  57  47 S5        30.39S
$$

VAZ088>098-241900-
SOUTHEAST VIRGINIA

CITY           SKY/WX    TMP DP  RH WIND       PRES   REMARKS
NORFOLK        CLOUDY    76  53  44 N7        30.37F
VIRGINIA BEACH PTSUNNY   78  52  40 S14       30.37F
NORFOLK NAVAL  MOSUNNY   84  56  38 W6        30.38F
WEST POINT*    SUNNY     83  50  32 SW13      30.37F
SALUDA*        FAIR      78  56  47 SW8G20    30.35F
NEWPORT NEWS   SUNNY     83  57  41 SW10      30.37F
LANGLEY AFB    MOSUNNY   78  58  50 VRB5      30.36F
FORT EUSTIS    MOSUNNY   79  60  52 VRB6      30.35F
WILLIAMSBURG*  SUNNY     84  57  39 SW3       30.38S
HR EXEC AP*    FAIR      81  59  47 SW7       30.38F
FRANKLIN*      PTSUNNY   79  55  43 SW7       30.37F
WAKEFIELD      MOSUNNY   81  56  42 W8        30.37F
$$

VAZ020-022-025-037-045-241900-
WEST CENTRAL AND SOUTHWEST VIRGINIA

CITY           SKY/WX    TMP DP  RH WIND       PRES   REMARKS
STAUNTON*      SUNNY     82  47  29 S12       30.35F
WAYNESBORO*    FAIR      77  48  36 SW7G16    30.35F
HOT SPRINGS VA CLOUDY    67  51  55 S8        30.42F
LYNCHBURG      SUNNY     79  50  36 S16       30.37F
DANVILLE       SUNNY     79  53  40 VRB3      30.37F
SOUTH BOSTON*  FAIR      80  54  40 S9        30.37F
MARTINSVILLE   SUNNY     80  51  35 S7        30.40F
ROANOKE        MOSUNNY   82  48  30 VRB5G16   30.36F
BLACKSBURG     SUNNY     74  49  40 S5        30.41F
DUBLIN*        SUNNY     78  48  34 S5        30.40S
MARION*        SUNNY     77  47  34 SE6       30.40F
HILLSVILLE*    SUNNY     71  50  47 S9G16     30.42F
RICHLANDS*     FAIR      75  49  39 S5        30.38F
WISE*          SUNNY     77  43  29 SE6       30.38F
ABINGDON*      SUNNY     79  48  33 S5        30.35F
$$

MDZ021>025-VAZ099-100-241900-
SOUTHERN MARYLAND AND THE DELMARVA PENINSULA

CITY           SKY/WX    TMP DP  RH WIND       PRES   REMARKS
PATUXENT RIVER MOSUNNY   76  59  55 VRB5      30.34F
BAY BRIDGE APT   N/A    N/A N/A N/A SE5       30.35S
LEONARDTOWN    SUNNY     77  55  47 SW8       30.36F
DOVER          SUNNY     78  58  50 SW10G16   30.31F
GEORGETOWN     SUNNY     79  52  38 SW16G23   30.34F
EASTON         MOSUNNY   77  57  50 SW12      30.38
CAMBRIDGE      SUNNY     77  55  47 S7        30.35S
SALISBURY      SUNNY     78  53  41 SW12      30.35F
OCEAN CITY     SUNNY     69  47  45 S12G23    30.37F
WALLOPS ISLAND SUNNY     69  46  43 S16       30.39F
ACCOMACK*      SUNNY     72  50  46 S10       30.38F
$$

NCZ012>017-030>032-241900-
NORTH CENTRAL AND EASTERN NORTH CAROLINA

CITY           SKY/WX    TMP DP  RH WIND       PRES   REMARKS
ROANOKE RAPIDS FAIR      79  55  44 SW7       30.38F
RALEIGH        MOSUNNY   81  56  42 SW6       30.38F
ELIZABETH CITY SUNNY     77  58  51 E12       30.39F
AHOSKIE*       MOSUNNY   79  56  45 SE7       30.38F
EDENTON*         N/A     78  54  44 CALM      30.39F
CURRITUCK*     SUNNY     75  50  40 E7        30.40F
KILL DEVIL HLS SUNNY     72  48  42 E8        30.40F
MANTEO         SUNNY     73  54  51 E10       30.41F
CAPE HATTERAS  SUNNY     76  59  55 SE8       30.41F
TARBORO*       MOCLDY    80  53  38 SW3       30.39F
GOLDSBORO      MOSUNNY   81  55  40 VRB1      30.35F
WASHINGTON     SUNNY     79  50  36 CALM      30.39F
GREENVILLE     MOSUNNY   81  55  41 CALM      30.38F
NEW BERN       SUNNY     81  51  35 SE5       30.40F
WILMINGTON     MOSUNNY   79  55  43 SE12      30.39F
$$

VAZ048-241900-
ELSEWHERE

CITY           SKY/WX    TMP DP  RH WIND       PRES   REMARKS
HARRISBURG PA  PTSUNNY   78  46  32 S5        30.30F
BALTIMORE      MOSUNNY   78  53  41 VRB5      30.32F
ANNAPOLIS      SUNNY     70  58  65 SE12      30.33F
ANDREWS AFB    SUNNY     77  56  48 SW10      30.32F
PHILADELPHIA   PTSUNNY   77  51  40 SW13      30.32F
HENDERSON NC   PTSUNNY   78  52  40 SW5       30.38F
GREENSBORO     PTSUNNY   78  52  40 SW12G18   30.37F
ROCKY MOUNT    MOSUNNY   81  54  39 SW8       30.38F
$$

VAZ100-241900-
MARINE

STATION/POSITION TIME  TEMP    WIND        PRES    WAVE   SWELL
                       AIR SEA DIR/SP/G            HT/PER HT/PER
                 (UTC) (F)     (DEG/KT/KT) (MB)    (FT/S) (FT/S)
BRANDYWINE LGT   1700   64 63  170/ 14/ 14 1027.9F
CAPE MAY NJ      1700   67 67  170/ 10/ 13 1027.7F
LEWES DE         1700   75 62  240/  9/ 13 1027.6F
15NM E FENWICK I 1750   61 60              1028.3F   1/ 3
OCEAN-CITY-INLET 1700   63 62  200/ 12/ 17 1028.9F
WACHAPREAGUE VA  1700   68 68  190/ 10/ 13 1029.5F
THOMAS POINT MD  1800   68 66  170/  8/  8 1027.9F
GOOSES REEF MD   1800   67 65  170/ 12/ 14 1028.4F   1/ 3
SOLOMONS ISLAND  1700      69                N/A
BISHOPS HEAD MD  1700   69 70  180/ 12/ 14 1028.0F
PINEY POINT MD   1700          100/  2/  3   N/A
CAMBRIDGE MD     1700   72 69  160/  7/ 10 1027.7F
LEWISETTA VA     1700   74 70              1027.5F
RAPPAHANNOCK LGT 1700          170/ 10/ 11 1029.5F
STINGRAY PT      1800   69 69  160/ 16/ 17 1027.9F   2/ 3
YORK RVR RNG VA  1700   68     140/ 12/ 13 1028.3F
YORKTOWN VA      1700   74 70  240/  9/ 11 1028.4F
JAMESTOWN VA     1800   76 74  240/  4/  8 1027.3F
DOMINION TERM VA 1700   73     190/  4/  6 1029.0F
KIPTOPEKE VA     1700      73  160/ 13/ 15   N/A
CHES BAY BRIDGE  1700   71 68   90/  5/ 10 1028.7F
CAPE HENRY VA    1700   68     140/ 13/ 18 1028.0F
CHESAPEAKE LGHT  1700   62     150/ 14/ 14 1030.2F
WILLOUBY STN VA  1700   73     340/  2/  2 1029.6F
CAPE HENRY BUOY  1728      67                N/A     1/ 7
1ST LANDING BUOY 1800      67              1028.5F
CAPE CHARLES BUO 1726      66                N/A     2/ 3   2/ 6
OFFSHORE WE BUOY 1711      62                N/A     2/ 7   2/ 7
64NM E OF VA BCH 1750   64 62  140/  6/  6 1029.6F   2/ 7   2/ 7
DUCK PIER NC     1700   66 63  120/  8/  9 1029.0F
44100 DUCK FRF   1724      64                N/A     2/ 8
44056 DUCK FRF   1711      65                N/A     2/ 5
OREGON INLET NC  1700   69 69   90/ 10/ 13 1030.0F
HATTERAS NC      1700   72 72  100/  8/  9 1029.6F
DIAMOND SHLS NC  1750   73 78   50/  4/  6 1029.6F   2/ 7   2/ 7
CAPE LOOKOUT NC  1800   74      60/  7/  8 1029.0F
$$



USA.gov is the U.S. government's official web portal to all federal, state and local government web resources and services.